RYR2005 EINN-LPMA

Flight info

Callsign RYR2005
Flight time 3h 10m
Altitude 38000
Route M078F380 KURUM3B KURUM DCT OMOKO T16 EKROL/M078F390 T16 NAVIX/N0440F390 DCT LIDRO LIDRO1P
Aircraft B38M/M-SDE1FGHILORVWXY/HB1

Departure

Time 2026-05-06 18:57
Airport Shannon Airport (EINN)

Arrival

Time 2026-05-06 22:07
Airport Cristiano Ronaldo International Airport (LPMA)
Time Latitude Longitude Altitude Speed Heading
2026-05-06 18:30 52.69369 -8.92055 21 ft 0 kts 185°
2026-05-06 18:45 52.69374 -8.92054 23 ft 2 kts 181°
2026-05-06 18:46 52.69388 -8.92057 22 ft 2 kts 166°
2026-05-06 18:46 52.69401 -8.92064 25 ft 2 kts 149°
2026-05-06 18:46 52.69412 -8.92077 26 ft 2 kts 133°
2026-05-06 18:46 52.69420 -8.92093 27 ft 2 kts 120°
2026-05-06 18:47 52.69426 -8.92111 27 ft 2 kts 110°
2026-05-06 18:47 52.69430 -8.92131 27 ft 2 kts 103°
2026-05-06 18:47 52.69433 -8.92152 24 ft 2 kts 98°
2026-05-06 18:47 52.69434 -8.92168 25 ft 1 kts 96°
2026-05-06 18:48 52.69435 -8.92173 25 ft 0 kts 95°
2026-05-06 18:48 52.69434 -8.92169 23 ft 0 kts 95°
2026-05-06 18:51 52.69442 -8.92163 25 ft 3 kts 20°
2026-05-06 18:51 52.69501 -8.92130 21 ft 15 kts 15°
2026-05-06 18:51 52.69622 -8.92027 22 ft 24 kts 34°
2026-05-06 18:52 52.69785 -8.91836 22 ft 33 kts 34°
2026-05-06 18:52 52.69834 -8.91766 21 ft 6 kts 71°
2026-05-06 18:52 52.69814 -8.91654 23 ft 13 kts 128°
2026-05-06 18:52 52.69746 -8.91498 21 ft 22 kts 124°
2026-05-06 18:53 52.69706 -8.91295 23 ft 15 kts 61°
2026-05-06 18:53 52.69791 -8.91230 24 ft 19 kts 19°
2026-05-06 18:53 52.69957 -8.91140 23 ft 31 kts 19°
2026-05-06 18:53 52.70193 -8.91010 22 ft 41 kts 19°
2026-05-06 18:54 52.70488 -8.90845 23 ft 49 kts 19°
2026-05-06 18:54 52.70802 -8.90675 22 ft 29 kts 18°
2026-05-06 18:54 52.70896 -8.90681 23 ft 0 kts 324°
2026-05-06 18:55 52.70909 -8.90696 23 ft 10 kts 324°
2026-05-06 18:55 52.70982 -8.90818 21 ft 10 kts 278°
2026-05-06 18:56 52.70964 -8.90868 24 ft 11 kts 229°
2026-05-06 18:56 52.70935 -8.90929 22 ft 0 kts 231°
2026-05-06 18:56 52.70924 -8.90950 22 ft 16 kts 231°
2026-05-06 18:57 52.70693 -8.91437 27 ft 90 kts 232°
2026-05-06 18:57 52.70175 -8.92520 34 ft 150 kts 230°
2026-05-06 18:57 52.69504 -8.93988 597 ft 163 kts 233°
2026-05-06 18:57 52.68777 -8.95453 1356 ft 173 kts 223°
2026-05-06 18:58 52.67654 -8.95999 2188 ft 175 kts 169°
2026-05-06 18:58 52.66502 -8.95403 3068 ft 173 kts 165°
2026-05-06 18:58 52.65302 -8.94897 3728 ft 185 kts 167°
2026-05-06 18:58 52.64038 -8.94460 4500 ft 189 kts 169°
2026-05-06 18:59 52.62744 -8.94064 5338 ft 189 kts 170°
2026-05-06 18:59 52.61418 -8.93687 5980 ft 197 kts 171°
2026-05-06 18:59 52.60008 -8.93302 6332 ft 218 kts 171°
2026-05-06 18:59 52.58481 -8.92613 6700 ft 240 kts 159°
2026-05-06 19:00 52.56860 -8.91461 7046 ft 263 kts 156°
2026-05-06 19:00 52.55169 -8.90171 7729 ft 272 kts 156°
2026-05-06 19:00 52.53434 -8.88846 8525 ft 278 kts 156°
2026-05-06 19:00 52.51654 -8.87501 9319 ft 284 kts 156°
2026-05-06 19:01 52.49836 -8.86141 10085 ft 290 kts 157°
2026-05-06 19:01 52.47987 -8.84770 10853 ft 293 kts 157°
2026-05-06 19:01 52.46119 -8.83392 11647 ft 296 kts 157°
2026-05-06 19:01 52.44228 -8.82004 12431 ft 299 kts 157°
2026-05-06 19:02 52.42344 -8.80625 13203 ft 303 kts 157°
2026-05-06 19:02 52.40403 -8.79208 13949 ft 306 kts 157°
2026-05-06 19:02 52.38443 -8.77779 14652 ft 310 kts 158°
2026-05-06 19:02 52.36462 -8.76337 15336 ft 313 kts 158°
2026-05-06 19:03 52.34455 -8.74877 16029 ft 317 kts 158°
2026-05-06 19:03 52.32455 -8.73423 16712 ft 320 kts 158°
2026-05-06 19:03 52.30403 -8.71933 17403 ft 324 kts 158°
2026-05-06 19:03 52.28330 -8.70431 18084 ft 327 kts 158°
2026-05-06 19:04 52.26230 -8.68912 18708 ft 331 kts 157°
2026-05-06 19:04 52.24033 -8.67804 19252 ft 333 kts 176°
2026-05-06 19:04 52.21731 -8.68136 19691 ft 338 kts 198°
2026-05-06 19:04 52.19577 -8.69859 19821 ft 353 kts 213°
2026-05-06 19:05 52.17457 -8.72081 19945 ft 371 kts 214°
2026-05-06 19:05 52.15270 -8.74461 20244 ft 382 kts 215°
2026-05-06 19:05 52.13077 -8.76863 20740 ft 387 kts 215°
2026-05-06 19:05 52.10826 -8.79317 21319 ft 390 kts 215°
2026-05-06 19:06 52.08554 -8.81777 21853 ft 394 kts 214°
2026-05-06 19:06 52.06254 -8.84249 22358 ft 398 kts 214°
2026-05-06 19:06 52.03927 -8.86737 22859 ft 403 kts 214°
2026-05-06 19:06 52.01574 -8.89241 23369 ft 406 kts 214°
2026-05-06 19:07 51.99187 -8.91775 23815 ft 410 kts 214°
2026-05-06 19:07 51.96812 -8.94290 24242 ft 413 kts 214°
2026-05-06 19:07 51.94400 -8.96840 24677 ft 415 kts 214°
2026-05-06 19:07 51.91966 -8.99409 25102 ft 418 kts 213°
2026-05-06 19:08 51.89515 -9.01994 25509 ft 421 kts 213°
2026-05-06 19:08 51.87051 -9.04588 25914 ft 424 kts 213°
2026-05-06 19:08 51.84602 -9.07164 26318 ft 426 kts 213°
2026-05-06 19:08 51.82103 -9.09788 26713 ft 429 kts 213°
2026-05-06 19:09 51.79587 -9.12427 27091 ft 432 kts 213°
2026-05-06 19:09 51.77051 -9.15084 27454 ft 435 kts 213°
2026-05-06 19:09 51.74504 -9.17747 27805 ft 438 kts 213°
2026-05-06 19:09 51.71934 -9.20432 28162 ft 441 kts 213°
2026-05-06 19:10 51.69374 -9.23104 28520 ft 443 kts 213°
2026-05-06 19:10 51.66764 -9.25822 28864 ft 446 kts 213°
2026-05-06 19:10 51.64148 -9.28544 29189 ft 449 kts 213°
2026-05-06 19:10 51.61512 -9.31282 29514 ft 452 kts 213°
2026-05-06 19:11 51.58862 -9.34031 29833 ft 454 kts 213°
2026-05-06 19:11 51.56193 -9.36796 30112 ft 457 kts 213°
2026-05-06 19:11 51.53510 -9.39572 30365 ft 460 kts 213°
2026-05-06 19:11 51.50841 -9.42328 30608 ft 462 kts 213°
2026-05-06 19:12 51.48127 -9.45128 30845 ft 464 kts 212°
2026-05-06 19:12 51.45396 -9.47941 31088 ft 466 kts 212°
2026-05-06 19:12 51.42662 -9.50753 31429 ft 466 kts 212°
2026-05-06 19:12 51.39927 -9.53562 31806 ft 465 kts 212°
2026-05-06 19:13 51.37229 -9.56329 32132 ft 465 kts 212°
2026-05-06 19:13 51.34499 -9.59126 32420 ft 465 kts 212°
2026-05-06 19:13 51.31766 -9.61920 32710 ft 466 kts 212°
2026-05-06 19:13 51.29028 -9.64716 33050 ft 465 kts 212°
2026-05-06 19:14 51.26306 -9.67493 33393 ft 464 kts 212°
2026-05-06 19:14 51.23576 -9.70273 33687 ft 465 kts 212°
2026-05-06 19:14 51.20847 -9.73048 33981 ft 465 kts 212°
2026-05-06 19:14 51.18151 -9.75785 34243 ft 464 kts 212°
2026-05-06 19:15 51.15425 -9.78549 34530 ft 463 kts 212°
2026-05-06 19:15 51.12711 -9.81298 34848 ft 461 kts 212°
2026-05-06 19:15 51.10003 -9.84036 35137 ft 460 kts 212°
2026-05-06 19:15 51.07307 -9.86759 35392 ft 459 kts 212°
2026-05-06 19:16 51.04612 -9.89475 35642 ft 458 kts 212°
2026-05-06 19:16 51.01911 -9.92195 35910 ft 457 kts 212°
2026-05-06 19:16 50.99228 -9.94893 36161 ft 456 kts 212°
2026-05-06 19:16 50.96543 -9.97589 36406 ft 456 kts 212°
2026-05-06 19:17 50.93861 -10.00278 36600 ft 456 kts 212°
2026-05-06 19:17 50.91176 -10.02967 36806 ft 456 kts 212°
2026-05-06 19:17 50.88500 -10.05642 37037 ft 455 kts 212°
2026-05-06 19:17 50.85821 -10.08317 37279 ft 454 kts 213°
2026-05-06 19:18 50.83182 -10.10949 37496 ft 454 kts 213°
2026-05-06 19:18 50.80509 -10.13611 37683 ft 454 kts 213°
2026-05-06 19:18 50.77830 -10.16275 37873 ft 454 kts 213°
2026-05-06 19:18 50.75158 -10.18928 38018 ft 454 kts 213°
2026-05-06 19:19 50.72464 -10.21601 38008 ft 457 kts 213°
2026-05-06 19:19 50.67092 -10.26917 38006 ft 454 kts 213°
2026-05-06 19:20 50.61787 -10.32153 38011 ft 450 kts 213°
2026-05-06 19:20 50.56489 -10.37367 38016 ft 447 kts 213°
2026-05-06 19:21 50.51242 -10.42519 38021 ft 446 kts 212°
2026-05-06 19:21 50.45968 -10.47682 38023 ft 446 kts 212°
2026-05-06 19:22 50.40681 -10.52846 38029 ft 447 kts 212°
2026-05-06 19:22 50.35408 -10.57981 38026 ft 449 kts 212°
2026-05-06 19:23 50.30069 -10.63167 38030 ft 451 kts 212°
2026-05-06 19:23 50.24751 -10.68319 38028 ft 453 kts 212°
2026-05-06 19:24 50.19374 -10.73514 38027 ft 455 kts 212°
2026-05-06 19:24 50.14896 -10.77830 38027 ft 455 kts 212°
2026-05-06 19:25 50.09483 -10.83033 38024 ft 456 kts 212°
2026-05-06 19:25 50.04111 -10.88184 38029 ft 455 kts 212°
2026-05-06 19:26 49.98726 -10.93334 38025 ft 454 kts 212°
2026-05-06 19:26 49.93341 -10.98469 38031 ft 452 kts 212°
2026-05-06 19:27 49.87976 -11.03573 38032 ft 451 kts 212°
2026-05-06 19:27 49.82621 -11.08654 38031 ft 450 kts 212°
2026-05-06 19:28 49.77321 -11.13668 38031 ft 449 kts 212°
2026-05-06 19:28 49.71995 -11.18695 38037 ft 448 kts 212°
2026-05-06 19:29 49.66666 -11.23712 38036 ft 448 kts 212°
2026-05-06 19:29 49.61341 -11.28711 38036 ft 448 kts 212°
2026-05-06 19:30 49.55999 -11.33714 38039 ft 449 kts 212°
2026-05-06 19:30 49.50689 -11.38674 38036 ft 449 kts 212°
2026-05-06 19:31 49.45333 -11.43664 38034 ft 450 kts 212°
2026-05-06 19:31 49.37264 -11.51157 38037 ft 451 kts 212°
2026-05-06 19:32 49.31912 -11.56111 38037 ft 452 kts 212°
2026-05-06 19:32 49.26511 -11.61097 38035 ft 453 kts 212°
2026-05-06 19:33 49.21102 -11.66078 38039 ft 453 kts 211°
2026-05-06 19:33 49.15722 -11.71020 38040 ft 453 kts 211°
2026-05-06 19:34 49.10307 -11.75981 38039 ft 453 kts 211°
2026-05-06 19:34 49.04895 -11.80927 38042 ft 453 kts 211°
2026-05-06 19:35 48.99487 -11.85857 38041 ft 452 kts 211°
2026-05-06 19:35 48.94118 -11.90739 38044 ft 452 kts 211°
2026-05-06 19:36 48.88718 -11.95639 38043 ft 451 kts 211°
2026-05-06 19:36 48.83275 -12.00402 38032 ft 451 kts 205°
2026-05-06 19:37 48.77419 -12.03829 38044 ft 451 kts 200°
2026-05-06 19:37 48.71550 -12.07011 38045 ft 450 kts 200°
2026-05-06 19:38 48.65650 -12.10239 38047 ft 450 kts 200°
2026-05-06 19:38 48.59748 -12.13509 38046 ft 451 kts 201°
2026-05-06 19:39 48.53890 -12.16767 38048 ft 451 kts 201°
2026-05-06 19:39 48.47995 -12.20041 38040 ft 451 kts 201°
2026-05-06 19:40 48.42076 -12.23319 38047 ft 452 kts 201°
2026-05-06 19:40 48.36198 -12.26566 38050 ft 453 kts 201°
2026-05-06 19:41 48.30275 -12.29828 38049 ft 453 kts 201°
2026-05-06 19:41 48.24346 -12.33086 38051 ft 454 kts 201°
2026-05-06 19:42 48.18411 -12.36339 38055 ft 454 kts 201°
2026-05-06 19:42 48.12466 -12.39589 38048 ft 454 kts 201°
2026-05-06 19:43 48.06560 -12.42810 38055 ft 454 kts 201°
2026-05-06 19:43 48.00612 -12.46045 38051 ft 454 kts 201°
2026-05-06 19:44 47.94666 -12.49273 38056 ft 454 kts 201°
2026-05-06 19:44 47.88717 -12.52494 38055 ft 454 kts 201°
2026-05-06 19:45 47.82777 -12.55702 38049 ft 454 kts 201°
2026-05-06 19:45 47.76869 -12.58885 38054 ft 453 kts 201°
2026-05-06 19:46 47.70937 -12.62073 38060 ft 453 kts 201°
2026-05-06 19:46 47.65009 -12.65251 38052 ft 452 kts 201°
2026-05-06 19:47 47.59121 -12.68400 38061 ft 452 kts 201°
2026-05-06 19:47 47.53189 -12.71566 38062 ft 452 kts 201°
2026-05-06 19:48 47.47293 -12.74704 38061 ft 452 kts 201°
2026-05-06 19:48 47.41376 -12.77846 38059 ft 452 kts 201°
2026-05-06 19:49 47.35445 -12.80988 38064 ft 452 kts 201°
2026-05-06 19:49 47.29548 -12.84105 38066 ft 452 kts 201°
2026-05-06 19:50 47.23617 -12.87232 38062 ft 452 kts 201°
2026-05-06 19:50 47.17686 -12.90351 38058 ft 452 kts 201°
2026-05-06 19:51 47.11785 -12.93448 38064 ft 453 kts 201°
2026-05-06 19:51 47.05837 -12.96562 38061 ft 453 kts 201°
2026-05-06 19:52 46.99892 -12.99666 38063 ft 453 kts 201°
2026-05-06 19:52 46.93981 -13.02746 38068 ft 454 kts 201°
2026-05-06 19:53 46.88019 -13.05845 38066 ft 454 kts 201°
2026-05-06 19:53 46.82066 -13.08932 38070 ft 454 kts 201°
2026-05-06 19:54 46.76107 -13.12015 38072 ft 454 kts 201°
2026-05-06 19:54 46.70136 -13.15097 38068 ft 454 kts 201°
2026-05-06 19:55 46.64206 -13.18151 38071 ft 455 kts 201°
2026-05-06 19:55 46.58241 -13.21215 38070 ft 455 kts 201°
2026-05-06 19:56 46.52254 -13.24284 38071 ft 455 kts 201°
2026-05-06 19:56 46.46318 -13.27319 38075 ft 455 kts 202°
2026-05-06 19:57 46.40334 -13.30372 38070 ft 455 kts 202°
2026-05-06 19:57 46.34353 -13.33416 38076 ft 455 kts 202°
2026-05-06 19:58 46.28410 -13.36434 38074 ft 455 kts 202°
2026-05-06 19:58 46.22428 -13.39464 38076 ft 455 kts 202°
2026-05-06 19:59 46.16438 -13.42492 38071 ft 455 kts 202°
2026-05-06 19:59 46.10486 -13.45493 38071 ft 455 kts 202°
2026-05-06 20:00 46.04502 -13.48504 38075 ft 456 kts 202°
2026-05-06 20:00 45.98503 -13.51515 38077 ft 456 kts 202°
2026-05-06 20:01 45.92503 -13.54520 38075 ft 456 kts 202°
2026-05-06 20:01 45.86536 -13.57502 38075 ft 457 kts 202°
2026-05-06 20:02 45.80519 -13.60501 38072 ft 457 kts 202°
2026-05-06 20:02 45.74506 -13.63492 38074 ft 457 kts 202°
2026-05-06 20:03 45.68527 -13.66459 38079 ft 458 kts 202°
2026-05-06 20:03 45.62476 -13.69455 38078 ft 458 kts 202°
2026-05-06 20:04 45.56494 -13.72410 38072 ft 458 kts 202°
2026-05-06 20:04 45.50456 -13.75387 38083 ft 458 kts 202°
2026-05-06 20:05 45.44418 -13.78356 38086 ft 458 kts 202°
2026-05-06 20:05 45.38414 -13.81302 38080 ft 459 kts 202°
2026-05-06 20:06 45.32368 -13.84262 38080 ft 458 kts 202°
2026-05-06 20:06 45.26339 -13.87207 38079 ft 458 kts 202°
2026-05-06 20:07 45.20287 -13.90157 38085 ft 458 kts 202°
2026-05-06 20:07 45.14287 -13.93075 38088 ft 458 kts 202°
2026-05-06 20:08 45.08243 -13.96008 38085 ft 458 kts 202°
2026-05-06 20:08 45.02201 -13.98934 38082 ft 458 kts 202°
2026-05-06 20:09 44.96204 -14.01960 38081 ft 456 kts 205°
2026-05-06 20:09 44.90348 -14.05247 38084 ft 456 kts 205°
2026-05-06 20:10 44.84457 -14.08587 38082 ft 456 kts 205°
2026-05-06 20:10 44.78547 -14.11889 38085 ft 455 kts 205°
2026-05-06 20:11 44.72681 -14.15132 38086 ft 455 kts 205°
2026-05-06 20:11 44.66762 -14.18390 38088 ft 455 kts 205°
2026-05-06 20:12 44.60886 -14.21616 38090 ft 455 kts 205°
2026-05-06 20:12 44.54994 -14.24845 38089 ft 455 kts 205°
2026-05-06 20:13 44.50083 -14.27532 38085 ft 455 kts 205°
2026-05-06 20:13 44.44210 -14.30739 38084 ft 454 kts 205°
2026-05-06 20:14 44.38307 -14.33956 38087 ft 454 kts 205°
2026-05-06 20:14 44.32403 -14.37166 38095 ft 454 kts 205°
2026-05-06 20:15 44.26502 -14.40367 38086 ft 454 kts 206°
2026-05-06 20:15 44.20643 -14.43538 38086 ft 454 kts 206°
2026-05-06 20:16 44.14737 -14.46729 38089 ft 454 kts 206°
2026-05-06 20:16 44.08841 -14.49907 38087 ft 454 kts 206°
2026-05-06 20:17 44.02945 -14.53078 38088 ft 454 kts 206°
2026-05-06 20:17 43.97077 -14.56227 38087 ft 454 kts 206°
2026-05-06 20:18 43.91173 -14.59390 38089 ft 454 kts 206°
2026-05-06 20:18 43.85259 -14.62550 38089 ft 454 kts 206°
2026-05-06 20:19 43.79354 -14.65699 38092 ft 454 kts 206°
2026-05-06 20:19 43.73477 -14.68827 38092 ft 455 kts 206°
2026-05-06 20:20 43.67564 -14.71967 38090 ft 455 kts 206°
2026-05-06 20:20 43.61643 -14.75105 38092 ft 456 kts 206°
2026-05-06 20:21 43.55744 -14.78224 38092 ft 456 kts 206°
2026-05-06 20:21 43.49797 -14.81363 38097 ft 457 kts 206°
2026-05-06 20:22 43.43878 -14.84480 38093 ft 457 kts 206°
2026-05-06 20:22 43.37915 -14.87613 38090 ft 458 kts 206°
2026-05-06 20:23 43.31949 -14.90741 38089 ft 459 kts 206°
2026-05-06 20:23 43.25957 -14.93876 38095 ft 460 kts 206°
2026-05-06 20:24 43.20002 -14.96986 38091 ft 460 kts 206°
2026-05-06 20:24 43.14002 -15.00112 38093 ft 461 kts 206°
2026-05-06 20:25 43.07995 -15.03235 38091 ft 461 kts 206°
2026-05-06 20:25 43.01981 -15.06356 38093 ft 462 kts 206°
2026-05-06 20:26 42.96009 -15.09448 38086 ft 462 kts 207°
2026-05-06 20:26 42.89977 -15.12565 38099 ft 462 kts 207°
2026-05-06 20:27 42.83951 -15.15672 38095 ft 462 kts 207°
2026-05-06 20:27 42.77962 -15.18753 38088 ft 462 kts 207°
2026-05-06 20:28 42.71927 -15.21851 38091 ft 462 kts 207°
2026-05-06 20:28 42.65913 -15.24933 38090 ft 461 kts 207°
2026-05-06 20:29 42.59939 -15.27988 38092 ft 461 kts 207°
2026-05-06 20:29 42.53937 -15.31051 38091 ft 460 kts 207°
2026-05-06 20:30 42.44924 -15.35638 38095 ft 459 kts 207°
2026-05-06 20:31 42.38979 -15.38656 38094 ft 459 kts 207°
2026-05-06 20:31 42.32996 -15.41688 38090 ft 458 kts 207°
2026-05-06 20:32 42.27019 -15.44710 38090 ft 457 kts 207°
2026-05-06 20:32 42.21083 -15.47706 38093 ft 457 kts 207°
2026-05-06 20:33 42.15135 -15.50702 38093 ft 456 kts 207°
2026-05-06 20:33 42.09173 -15.53699 38095 ft 455 kts 207°
2026-05-06 20:34 42.03281 -15.56655 38094 ft 454 kts 207°
2026-05-06 20:34 41.97108 -15.58796 38095 ft 466 kts 192°
2026-05-06 20:35 41.90661 -15.59490 38090 ft 467 kts 190°
2026-05-06 20:35 41.84172 -15.60098 38090 ft 466 kts 190°
2026-05-06 20:36 41.77711 -15.60753 38093 ft 465 kts 191°
2026-05-06 20:36 41.71295 -15.61444 38094 ft 464 kts 191°
2026-05-06 20:37 41.64850 -15.62150 38096 ft 463 kts 191°
2026-05-06 20:37 41.58452 -15.62851 38096 ft 463 kts 191°
2026-05-06 20:38 41.51999 -15.63554 38094 ft 463 kts 191°
2026-05-06 20:38 41.45600 -15.64249 38091 ft 464 kts 191°
2026-05-06 20:39 41.39160 -15.64947 38092 ft 464 kts 191°
2026-05-06 20:39 41.32710 -15.65645 38095 ft 464 kts 191°
2026-05-06 20:40 41.26267 -15.66340 38094 ft 464 kts 191°
2026-05-06 20:40 41.19857 -15.67030 38092 ft 465 kts 191°
2026-05-06 20:41 41.13393 -15.67725 38087 ft 465 kts 191°
2026-05-06 20:41 41.06936 -15.68418 38097 ft 465 kts 191°
2026-05-06 20:42 41.00483 -15.69109 38094 ft 465 kts 191°
2026-05-06 20:42 40.94061 -15.69795 38091 ft 465 kts 191°
2026-05-06 20:43 40.87602 -15.70484 38094 ft 465 kts 191°
2026-05-06 20:43 40.81140 -15.71172 38097 ft 465 kts 191°
2026-05-06 20:44 40.74709 -15.71855 38093 ft 465 kts 191°
2026-05-06 20:44 40.68240 -15.72541 38090 ft 465 kts 191°
2026-05-06 20:45 40.61821 -15.73220 38090 ft 466 kts 191°
2026-05-06 20:45 40.55343 -15.73904 38088 ft 466 kts 191°
2026-05-06 20:46 40.48905 -15.74583 38098 ft 466 kts 191°
2026-05-06 20:46 40.42443 -15.75263 38088 ft 466 kts 191°
2026-05-06 20:47 40.35964 -15.75943 38095 ft 466 kts 191°
2026-05-06 20:47 40.29491 -15.76622 38104 ft 466 kts 191°
2026-05-06 20:48 40.23046 -15.77296 38088 ft 467 kts 191°
2026-05-06 20:48 40.16560 -15.77973 38088 ft 467 kts 191°
2026-05-06 20:49 40.10085 -15.78648 38095 ft 467 kts 191°
2026-05-06 20:49 40.03597 -15.79323 38092 ft 467 kts 191°
2026-05-06 20:50 39.97161 -15.79991 38095 ft 467 kts 191°
2026-05-06 20:50 39.90676 -15.80663 38096 ft 467 kts 191°
2026-05-06 20:51 39.84188 -15.81334 38094 ft 467 kts 191°
2026-05-06 20:51 39.77701 -15.82003 38091 ft 467 kts 191°
2026-05-06 20:52 39.71216 -15.82672 38096 ft 467 kts 191°
2026-05-06 20:52 39.64758 -15.83336 38095 ft 468 kts 191°
2026-05-06 20:53 39.58269 -15.84002 38096 ft 468 kts 191°
2026-05-06 20:53 39.51783 -15.84666 38094 ft 468 kts 191°
2026-05-06 20:54 39.45284 -15.85331 38095 ft 468 kts 191°
2026-05-06 20:54 39.38769 -15.85996 38102 ft 468 kts 191°
2026-05-06 20:55 39.32314 -15.86653 38099 ft 468 kts 191°
2026-05-06 20:55 39.25799 -15.87316 38098 ft 468 kts 191°
2026-05-06 20:56 39.19325 -15.87973 38095 ft 469 kts 191°
2026-05-06 20:56 39.12812 -15.88633 38102 ft 469 kts 191°
2026-05-06 20:57 39.06296 -15.89292 38098 ft 469 kts 191°
2026-05-06 20:57 38.99826 -15.89945 38098 ft 469 kts 191°
2026-05-06 20:58 38.93309 -15.90601 38102 ft 469 kts 191°
2026-05-06 20:58 38.86796 -15.91256 38100 ft 469 kts 191°
2026-05-06 20:59 38.80284 -15.91910 38100 ft 469 kts 191°
2026-05-06 20:59 38.73813 -15.92558 38099 ft 469 kts 191°
2026-05-06 21:00 38.67286 -15.93211 38103 ft 469 kts 191°
2026-05-06 21:00 38.60802 -15.93858 38100 ft 469 kts 191°
2026-05-06 21:01 38.54277 -15.94509 38100 ft 469 kts 191°
2026-05-06 21:01 38.48849 -15.95049 38101 ft 470 kts 191°
2026-05-06 21:02 38.42326 -15.95697 38102 ft 470 kts 191°
2026-05-06 21:02 38.34745 -15.96448 38102 ft 470 kts 191°
2026-05-06 21:03 38.29310 -15.96986 38103 ft 470 kts 191°
2026-05-06 21:03 38.22779 -15.97631 38102 ft 470 kts 191°
2026-05-06 21:04 38.16228 -15.98277 38101 ft 471 kts 191°
2026-05-06 21:04 38.09716 -15.98918 38096 ft 471 kts 191°
2026-05-06 21:05 38.03164 -15.99562 38105 ft 472 kts 191°
2026-05-06 21:05 37.96610 -16.00205 38115 ft 472 kts 191°
2026-05-06 21:06 37.90093 -16.00843 38103 ft 473 kts 191°
2026-05-06 21:06 37.83511 -16.01486 38109 ft 473 kts 191°
2026-05-06 21:07 37.76975 -16.02124 38113 ft 473 kts 191°
2026-05-06 21:07 37.70387 -16.02765 38110 ft 474 kts 191°
2026-05-06 21:08 37.63836 -16.03402 38112 ft 474 kts 191°
2026-05-06 21:08 37.57251 -16.04040 38104 ft 474 kts 191°
2026-05-06 21:09 37.50657 -16.04679 38114 ft 474 kts 191°
2026-05-06 21:09 37.44109 -16.05312 38112 ft 474 kts 191°
2026-05-06 21:10 37.37513 -16.05949 38110 ft 474 kts 191°
2026-05-06 21:10 37.30919 -16.06584 38110 ft 474 kts 191°
2026-05-06 21:11 37.24378 -16.07213 38112 ft 474 kts 191°
2026-05-06 21:11 37.17779 -16.07847 38109 ft 474 kts 191°
2026-05-06 21:12 37.11186 -16.08479 38106 ft 474 kts 191°
2026-05-06 21:12 37.04645 -16.09104 38111 ft 474 kts 191°
2026-05-06 21:13 36.98055 -16.09734 38110 ft 474 kts 191°
2026-05-06 21:13 36.91477 -16.10361 38122 ft 474 kts 191°
2026-05-06 21:14 36.84896 -16.10988 38120 ft 474 kts 191°
2026-05-06 21:14 36.78340 -16.11611 38113 ft 474 kts 191°
2026-05-06 21:15 36.71746 -16.12236 38111 ft 474 kts 190°
2026-05-06 21:15 36.65159 -16.12860 38114 ft 475 kts 190°
2026-05-06 21:16 36.58568 -16.13483 38115 ft 475 kts 190°
2026-05-06 21:16 36.51981 -16.14104 38116 ft 475 kts 190°
2026-05-06 21:17 36.45427 -16.14722 38114 ft 475 kts 190°
2026-05-06 21:17 36.38827 -16.15342 38119 ft 475 kts 190°
2026-05-06 21:18 36.32233 -16.15961 38116 ft 475 kts 190°
2026-05-06 21:18 36.25638 -16.16580 38120 ft 475 kts 190°
2026-05-06 21:19 36.19078 -16.17193 38117 ft 475 kts 190°
2026-05-06 21:19 36.12485 -16.17809 38117 ft 474 kts 190°
2026-05-06 21:20 36.05888 -16.18424 38113 ft 474 kts 190°
2026-05-06 21:20 35.99337 -16.19034 38119 ft 474 kts 190°
2026-05-06 21:21 35.92753 -16.19646 38121 ft 474 kts 190°
2026-05-06 21:21 35.86210 -16.20253 38119 ft 473 kts 190°
2026-05-06 21:22 35.79635 -16.20862 38120 ft 473 kts 190°
2026-05-06 21:22 35.73059 -16.21470 38122 ft 473 kts 190°
2026-05-06 21:23 35.66494 -16.22076 38117 ft 473 kts 190°
2026-05-06 21:23 35.59954 -16.22678 38119 ft 473 kts 190°
2026-05-06 21:24 35.53369 -16.23275 38119 ft 474 kts 188°
2026-05-06 21:24 35.46728 -16.22744 38132 ft 481 kts 177°
2026-05-06 21:25 35.40118 -16.21629 38120 ft 482 kts 176°
2026-05-06 21:25 35.33468 -16.20511 38119 ft 482 kts 177°
2026-05-06 21:26 35.26818 -16.19449 38101 ft 482 kts 177°
2026-05-06 21:26 35.23470 -16.18927 37806 ft 486 kts 177°
2026-05-06 21:26 35.20118 -16.18407 37535 ft 483 kts 177°
2026-05-06 21:26 35.16820 -16.17896 37261 ft 481 kts 177°
2026-05-06 21:27 35.13510 -16.17382 36990 ft 478 kts 177°
2026-05-06 21:27 35.10198 -16.16868 36726 ft 476 kts 177°
2026-05-06 21:27 35.06911 -16.16359 36465 ft 474 kts 177°
2026-05-06 21:27 35.03653 -16.15854 36175 ft 469 kts 177°
2026-05-06 21:28 35.00435 -16.15354 35814 ft 464 kts 177°
2026-05-06 21:28 34.97276 -16.14865 35427 ft 461 kts 177°
2026-05-06 21:28 34.94061 -16.14368 35039 ft 458 kts 177°
2026-05-06 21:28 34.90944 -16.13887 34656 ft 456 kts 177°
2026-05-06 21:29 34.87794 -16.13402 34274 ft 453 kts 177°
2026-05-06 21:29 34.84664 -16.12920 33859 ft 451 kts 177°
2026-05-06 21:29 34.81590 -16.12446 33447 ft 449 kts 177°
2026-05-06 21:29 34.78495 -16.11970 33057 ft 446 kts 177°
2026-05-06 21:30 34.75422 -16.11497 32664 ft 443 kts 177°
2026-05-06 21:30 34.72365 -16.11026 32285 ft 440 kts 177°
2026-05-06 21:30 34.69367 -16.10566 31919 ft 437 kts 177°
2026-05-06 21:30 34.66354 -16.10103 31550 ft 434 kts 177°
2026-05-06 21:31 34.63355 -16.09643 31186 ft 432 kts 177°
2026-05-06 21:31 34.60378 -16.09187 30826 ft 430 kts 177°
2026-05-06 21:31 34.57418 -16.08734 30471 ft 427 kts 177°
2026-05-06 21:31 34.54473 -16.08283 30098 ft 425 kts 177°
2026-05-06 21:32 34.51548 -16.07864 29668 ft 421 kts 181°
2026-05-06 21:32 34.45910 -16.08642 28749 ft 404 kts 201°
2026-05-06 21:32 34.43201 -16.09528 28347 ft 401 kts 201°
2026-05-06 21:33 34.40516 -16.10415 27939 ft 399 kts 201°
2026-05-06 21:33 34.37839 -16.11296 27545 ft 397 kts 201°
2026-05-06 21:33 34.35175 -16.12165 27157 ft 394 kts 201°
2026-05-06 21:33 34.32536 -16.13018 26791 ft 392 kts 201°
2026-05-06 21:34 34.29903 -16.13864 26404 ft 390 kts 200°
2026-05-06 21:34 34.27289 -16.14700 26032 ft 388 kts 200°
2026-05-06 21:34 34.24685 -16.15531 25669 ft 385 kts 200°
2026-05-06 21:34 34.22095 -16.16355 25303 ft 383 kts 200°
2026-05-06 21:35 34.19550 -16.17165 24957 ft 381 kts 200°
2026-05-06 21:35 34.16988 -16.17979 24609 ft 379 kts 200°
2026-05-06 21:35 34.14438 -16.18789 24274 ft 377 kts 200°
2026-05-06 21:35 34.11896 -16.19596 23938 ft 375 kts 200°
2026-05-06 21:36 34.09379 -16.20395 23582 ft 373 kts 199°
2026-05-06 21:36 34.06867 -16.21192 23197 ft 371 kts 199°
2026-05-06 21:36 34.04378 -16.21980 22830 ft 369 kts 199°
2026-05-06 21:36 34.01898 -16.22765 22472 ft 366 kts 199°
2026-05-06 21:37 33.99468 -16.23534 22110 ft 364 kts 199°
2026-05-06 21:37 33.97023 -16.24308 21751 ft 362 kts 199°
2026-05-06 21:37 33.94582 -16.25079 21396 ft 360 kts 199°
2026-05-06 21:37 33.92166 -16.25843 21051 ft 358 kts 199°
2026-05-06 21:38 33.89765 -16.26601 20717 ft 356 kts 199°
2026-05-06 21:38 33.87375 -16.27355 20370 ft 354 kts 199°
2026-05-06 21:38 33.84996 -16.28106 20041 ft 352 kts 199°
2026-05-06 21:38 33.82634 -16.28850 19716 ft 350 kts 199°
2026-05-06 21:39 33.80281 -16.29591 19388 ft 348 kts 198°
2026-05-06 21:39 33.77939 -16.30329 19064 ft 347 kts 198°
2026-05-06 21:39 33.75632 -16.31055 18755 ft 345 kts 198°
2026-05-06 21:39 33.73317 -16.31783 18434 ft 343 kts 198°
2026-05-06 21:40 33.71012 -16.32508 18090 ft 341 kts 198°
2026-05-06 21:40 33.68721 -16.33227 17759 ft 339 kts 198°
2026-05-06 21:40 33.66432 -16.33946 17363 ft 338 kts 198°
2026-05-06 21:40 33.64188 -16.34650 17011 ft 337 kts 198°
2026-05-06 21:41 33.61897 -16.35369 16651 ft 335 kts 198°
2026-05-06 21:41 33.59668 -16.36068 16313 ft 334 kts 198°
2026-05-06 21:41 33.57425 -16.36770 15966 ft 333 kts 198°
2026-05-06 21:41 33.55188 -16.37471 15621 ft 331 kts 198°
2026-05-06 21:42 33.52960 -16.38168 15285 ft 330 kts 198°
2026-05-06 21:42 33.50742 -16.38862 14945 ft 328 kts 198°
2026-05-06 21:42 33.48532 -16.39553 14610 ft 327 kts 198°
2026-05-06 21:42 33.46360 -16.40232 14297 ft 325 kts 198°
2026-05-06 21:43 33.44173 -16.40914 13974 ft 324 kts 198°
2026-05-06 21:43 33.41990 -16.41596 13610 ft 323 kts 198°
2026-05-06 21:43 33.39815 -16.42274 13241 ft 321 kts 197°
2026-05-06 21:43 33.37656 -16.42947 12873 ft 320 kts 197°
2026-05-06 21:44 33.35502 -16.43619 12521 ft 318 kts 197°
2026-05-06 21:44 33.33365 -16.44284 12169 ft 317 kts 197°
2026-05-06 21:44 33.31262 -16.44939 11847 ft 314 kts 197°
2026-05-06 21:44 33.29148 -16.45597 11526 ft 312 kts 197°
2026-05-06 21:45 33.27053 -16.46248 11204 ft 310 kts 197°
2026-05-06 21:45 33.24986 -16.46890 10892 ft 308 kts 197°
2026-05-06 21:45 33.22913 -16.47534 10580 ft 306 kts 197°
2026-05-06 21:45 33.20858 -16.48173 10267 ft 304 kts 197°
2026-05-06 21:46 33.18815 -16.48807 9960 ft 302 kts 197°
2026-05-06 21:46 33.16780 -16.49438 9609 ft 301 kts 197°
2026-05-06 21:46 33.14760 -16.50065 9269 ft 299 kts 197°
2026-05-06 21:46 33.12748 -16.50689 8929 ft 297 kts 197°
2026-05-06 21:47 33.10774 -16.51300 8606 ft 296 kts 197°
2026-05-06 21:47 33.08784 -16.51917 8274 ft 295 kts 197°
2026-05-06 21:47 33.06799 -16.52530 7941 ft 291 kts 197°
2026-05-06 21:47 33.04853 -16.53132 7606 ft 285 kts 197°
2026-05-06 21:48 33.02953 -16.53719 7315 ft 278 kts 197°
2026-05-06 21:48 33.01116 -16.54286 7055 ft 275 kts 196°
2026-05-06 21:48 32.99257 -16.54861 6791 ft 276 kts 196°
2026-05-06 21:48 32.97386 -16.55439 6571 ft 276 kts 196°
2026-05-06 21:49 32.95545 -16.56008 6365 ft 272 kts 196°
2026-05-06 21:49 32.93918 -16.56510 6112 ft 271 kts 196°
2026-05-06 21:49 32.92713 -16.56882 6004 ft 267 kts 196°
2026-05-06 21:49 32.90943 -16.57426 5891 ft 259 kts 196°
2026-05-06 21:50 32.89189 -16.57967 5660 ft 263 kts 196°
2026-05-06 21:50 32.87406 -16.58516 5465 ft 263 kts 195°
2026-05-06 21:50 32.85671 -16.59069 5398 ft 253 kts 200°
2026-05-06 21:50 32.84073 -16.59839 5315 ft 243 kts 201°
2026-05-06 21:51 32.82470 -16.60382 5237 ft 235 kts 194°
2026-05-06 21:51 32.80904 -16.60799 5032 ft 233 kts 193°
2026-05-06 21:51 32.79309 -16.61217 4712 ft 235 kts 193°
2026-05-06 21:51 32.77727 -16.61633 4422 ft 230 kts 193°
2026-05-06 21:52 32.76172 -16.62042 4066 ft 227 kts 193°
2026-05-06 21:52 32.74642 -16.62458 3742 ft 224 kts 195°
2026-05-06 21:52 32.73138 -16.62936 3414 ft 221 kts 196°
2026-05-06 21:52 32.71656 -16.63423 3093 ft 219 kts 196°
2026-05-06 21:53 32.70258 -16.63900 2986 ft 203 kts 199°
2026-05-06 21:53 32.68924 -16.64462 3018 ft 204 kts 201°
2026-05-06 21:53 32.67601 -16.65093 3001 ft 205 kts 213°
2026-05-06 21:53 32.66476 -16.66100 3022 ft 203 kts 220°
2026-05-06 21:54 32.65354 -16.67123 2999 ft 203 kts 219°
2026-05-06 21:54 32.64245 -16.68118 3003 ft 194 kts 219°
2026-05-06 21:54 32.63204 -16.69043 2984 ft 184 kts 219°
2026-05-06 21:54 32.62195 -16.69935 2988 ft 180 kts 220°
2026-05-06 21:55 32.61393 -16.71040 2988 ft 174 kts 250°
2026-05-06 21:55 32.61200 -16.72331 2990 ft 149 kts 290°
2026-05-06 21:55 32.61535 -16.73483 2963 ft 147 kts 294°
2026-05-06 21:55 32.61867 -16.74662 2450 ft 154 kts 292°
2026-05-06 21:56 32.62223 -16.75846 1979 ft 150 kts 296°
2026-05-06 21:56 32.62650 -16.76954 1533 ft 148 kts 301°
2026-05-06 21:56 32.63115 -16.77992 1366 ft 137 kts 306°
2026-05-06 21:56 32.63672 -16.78892 1412 ft 135 kts 315°
2026-05-06 21:57 32.64387 -16.79638 1380 ft 139 kts 327°
2026-05-06 21:57 32.65276 -16.80098 1215 ft 144 kts 343°
2026-05-06 21:57 32.66221 -16.80335 948 ft 136 kts 357°
2026-05-06 21:57 32.67138 -16.80138 665 ft 135 kts 18°
2026-05-06 21:58 32.67931 -16.79589 467 ft 129 kts 36°
2026-05-06 21:58 32.68582 -16.78850 361 ft 142 kts 43°
2026-05-06 21:58 32.69293 -16.78002 327 ft 139 kts 40°
2026-05-06 21:58 32.69967 -16.77224 922 ft 134 kts 39°
2026-05-06 21:59 32.70728 -16.76487 1599 ft 154 kts 36°
2026-05-06 21:59 32.71639 -16.75712 2195 ft 175 kts 33°
2026-05-06 21:59 32.72411 -16.74630 2996 ft 180 kts 74°
2026-05-06 21:59 32.72397 -16.73055 3023 ft 196 kts 102°
2026-05-06 22:00 32.71934 -16.71541 2992 ft 195 kts 115°
2026-05-06 22:00 32.71151 -16.70213 3013 ft 199 kts 124°
2026-05-06 22:00 32.70292 -16.68909 2994 ft 201 kts 125°
2026-05-06 22:00 32.69426 -16.67604 2996 ft 201 kts 125°
2026-05-06 22:01 32.68556 -16.66300 2996 ft 201 kts 125°
2026-05-06 22:01 32.67516 -16.65198 2978 ft 205 kts 157°
2026-05-06 22:01 32.66135 -16.65104 3033 ft 203 kts 187°
2026-05-06 22:01 32.64713 -16.65304 2994 ft 206 kts 186°
2026-05-06 22:02 32.63288 -16.65489 3003 ft 206 kts 186°
2026-05-06 22:02 32.61862 -16.65697 2999 ft 206 kts 195°
2026-05-06 22:02 32.60722 -16.66577 2915 ft 191 kts 232°
2026-05-06 22:02 32.59891 -16.67764 2781 ft 182 kts 235°
2026-05-06 22:03 32.59120 -16.68914 2640 ft 179 kts 235°
2026-05-06 22:03 32.58653 -16.70204 2495 ft 166 kts 268°
2026-05-06 22:03 32.58705 -16.71518 2382 ft 157 kts 284°
2026-05-06 22:03 32.58975 -16.72728 2290 ft 150 kts 296°
2026-05-06 22:04 32.59335 -16.73865 2162 ft 143 kts 294°
2026-05-06 22:04 32.59670 -16.74974 2033 ft 143 kts 294°
2026-05-06 22:04 32.60011 -16.76066 1986 ft 142 kts 297°
2026-05-06 22:04 32.60468 -16.77076 1946 ft 136 kts 308°
2026-05-06 22:05 32.61090 -16.77939 2000 ft 137 kts 321°
2026-05-06 22:05 32.61830 -16.78618 1861 ft 130 kts 332°
2026-05-06 22:05 32.62661 -16.79112 1662 ft 139 kts 342°
2026-05-06 22:05 32.63576 -16.79461 1626 ft 137 kts 350°
2026-05-06 22:06 32.64523 -16.79708 1453 ft 141 kts 351°
2026-05-06 22:06 32.65470 -16.79957 1227 ft 141 kts 351°
2026-05-06 22:06 32.66447 -16.80140 967 ft 142 kts 359°
2026-05-06 22:06 32.67405 -16.79940 668 ft 143 kts 22°
2026-05-06 22:07 32.68214 -16.79304 461 ft 138 kts 40°
2026-05-06 22:07 32.68868 -16.78504 281 ft 135 kts 43°
2026-05-06 22:07 32.69508 -16.77789 193 ft 113 kts 45°
2026-05-06 22:07 32.69819 -16.77407 207 ft 44 kts 45°
2026-05-06 22:08 32.69950 -16.77217 204 ft 18 kts 101°
2026-05-06 22:08 32.69847 -16.77182 206 ft 17 kts 198°
2026-05-06 22:08 32.69760 -16.77271 202 ft 16 kts 227°
2026-05-06 22:08 32.69686 -16.77367 190 ft 15 kts 226°
2026-05-06 22:09 32.69613 -16.77457 192 ft 15 kts 226°
2026-05-06 22:09 32.69545 -16.77543 190 ft 14 kts 230°
2026-05-06 22:09 32.69517 -16.77563 192 ft 1 kts 187°
2026-05-06 22:09 32.69511 -16.77561 194 ft 2 kts 171°
2026-05-06 22:10 32.69495 -16.77549 190 ft 4 kts 138°
2026-05-06 22:10 32.69472 -16.77523 195 ft 0 kts 137°
2026-05-06 22:10 32.69470 -16.77521 195 ft 0 kts 137°